BAW792F EGLL-ESGG

Flight info

Callsign BAW792F
Flight time N/A
Altitude 30000
Route BPK Q295 PAAVO M604 GIVPO DCT LARGA DCT SOPTO DCT AAL N607 MAKUR
Aircraft A319/M-SDE3FGHIRWY/LB1

Departure

Time 2026-05-04 09:43
Airport London Heathrow Airport (EGLL)

Arrival

Time N/A
Airport Göteborg Landvetter Airport (ESGG)
Time Latitude Longitude Altitude Speed Heading
2026-05-04 09:15 51.46861 -0.44413 89 ft 0 kts 93°
2026-05-04 09:37 51.46882 -0.44552 88 ft 4 kts 158°
2026-05-04 09:37 51.46889 -0.44556 87 ft 0 kts 180°
2026-05-04 09:40 51.46878 -0.44556 89 ft 4 kts 180°
2026-05-04 09:40 51.46839 -0.44556 85 ft 7 kts 180°
2026-05-04 09:40 51.46784 -0.44556 85 ft 9 kts 180°
2026-05-04 09:41 51.46712 -0.44555 85 ft 11 kts 180°
2026-05-04 09:42 51.46492 -0.44765 89 ft 76 kts 270°
2026-05-04 09:43 51.46488 -0.45925 83 ft 131 kts 270°
2026-05-04 09:43 51.46485 -0.47629 206 ft 167 kts 272°
2026-05-04 09:43 51.46489 -0.49523 769 ft 171 kts 271°
2026-05-04 09:43 51.46714 -0.51376 1356 ft 173 kts 296°
2026-05-04 09:44 51.47282 -0.53193 1715 ft 194 kts 298°
2026-05-04 09:44 51.47942 -0.55254 2097 ft 220 kts 298°
2026-05-04 09:44 51.48677 -0.57555 2657 ft 244 kts 297°
2026-05-04 09:46 51.58091 -0.60769 6865 ft 279 kts 57°
2026-05-04 09:46 51.59206 -0.58203 7739 ft 283 kts 54°
2026-05-04 09:46 51.60403 -0.55655 8602 ft 288 kts 53°
2026-05-04 09:47 51.61644 -0.53085 9462 ft 293 kts 52°
2026-05-04 09:47 51.62761 -0.50325 10238 ft 300 kts 63°
2026-05-04 09:49 51.70294 -0.26009 14390 ft 365 kts 65°
2026-05-04 09:49 51.71422 -0.22316 14899 ft 368 kts 65°
2026-05-04 09:49 51.72539 -0.18651 15044 ft 369 kts 65°
2026-05-04 09:51 51.76303 0.05363 17433 ft 380 kts 84°
2026-05-04 09:51 51.76662 0.09609 18075 ft 383 kts 84°
2026-05-04 09:51 51.77018 0.13892 18664 ft 387 kts 84°
2026-05-04 09:51 51.77371 0.18218 19214 ft 390 kts 84°
2026-05-04 09:52 51.77726 0.22586 19765 ft 394 kts 84°
2026-05-04 09:52 51.78083 0.27000 20316 ft 398 kts 84°
2026-05-04 09:52 51.78445 0.31446 20856 ft 402 kts 84°
2026-05-04 09:52 51.78811 0.35948 21390 ft 406 kts 84°
2026-05-04 09:53 51.79178 0.40491 21919 ft 410 kts 84°
2026-05-04 09:53 51.79543 0.45077 22428 ft 413 kts 84°
2026-05-04 09:53 51.79906 0.49709 22910 ft 417 kts 84°
2026-05-04 09:53 51.80269 0.54378 23398 ft 421 kts 84°
2026-05-04 09:54 51.80635 0.59085 23830 ft 425 kts 84°
2026-05-04 09:54 51.81081 0.63831 24156 ft 431 kts 78°
2026-05-04 09:54 51.81967 0.68506 24462 ft 438 kts 68°
2026-05-04 09:54 51.83157 0.73061 24843 ft 442 kts 68°
2026-05-04 09:55 51.84354 0.77643 25241 ft 445 kts 68°
2026-05-04 09:55 51.85692 0.82192 25645 ft 449 kts 60°
2026-05-04 09:55 51.87435 0.86380 26029 ft 452 kts 51°
2026-05-04 09:55 51.89588 0.90129 26415 ft 455 kts 42°
2026-05-04 09:56 51.91964 0.93557 26792 ft 459 kts 41°
2026-05-04 09:56 51.94351 0.97015 27165 ft 462 kts 41°
2026-05-04 09:56 51.96756 1.00517 27456 ft 468 kts 42°
2026-05-04 09:56 51.99185 1.04070 27777 ft 472 kts 42°
2026-05-04 09:57 52.01632 1.07659 28122 ft 476 kts 43°
2026-05-04 09:57 52.04097 1.11277 28479 ft 480 kts 43°
2026-05-04 09:57 52.06693 1.14702 28843 ft 483 kts 36°
2026-05-04 09:57 52.09386 1.17980 29191 ft 486 kts 37°
2026-05-04 09:58 52.12101 1.21295 29517 ft 489 kts 37°
2026-05-04 09:58 52.14792 1.24723 29836 ft 493 kts 39°
2026-05-04 09:58 52.17448 1.28279 30148 ft 496 kts 40°
2026-05-04 10:00 52.35375 1.53564 31038 ft 474 kts 45°
2026-05-04 10:00 52.37685 1.57417 31035 ft 475 kts 46°
2026-05-04 10:04 52.69774 2.11900 31013 ft 474 kts 46°
2026-05-04 10:04 52.74344 2.19763 31013 ft 475 kts 46°
2026-05-04 10:05 52.78905 2.27643 31038 ft 474 kts 45°
2026-05-04 10:05 52.83452 2.35519 31040 ft 473 kts 45°
2026-05-04 10:06 52.87989 2.43396 31032 ft 472 kts 45°
2026-05-04 10:06 52.92518 2.51283 31030 ft 472 kts 45°
2026-05-04 10:08 53.08318 2.69950 31051 ft 465 kts 24°
2026-05-04 10:08 53.11213 2.72359 31050 ft 465 kts 24°
2026-05-04 10:08 53.16990 2.77191 31045 ft 464 kts 24°
2026-05-04 10:09 53.22746 2.82016 31054 ft 463 kts 24°
2026-05-04 10:09 53.28491 2.86823 31066 ft 460 kts 24°
2026-05-04 10:10 53.34241 2.91459 31063 ft 457 kts 22°
2026-05-04 10:10 53.40007 2.95892 31057 ft 455 kts 22°
2026-05-04 10:11 53.45757 3.00327 31050 ft 454 kts 22°
2026-05-04 10:11 53.51479 3.04828 31040 ft 454 kts 22°
2026-05-04 10:12 53.57192 3.09369 31035 ft 454 kts 22°
2026-05-04 10:12 53.62900 3.13917 31010 ft 455 kts 22°
2026-05-04 10:13 53.68650 3.18491 31006 ft 458 kts 22°
2026-05-04 10:13 53.74412 3.23074 31074 ft 456 kts 23°
2026-05-04 10:14 53.80125 3.27664 31078 ft 453 kts 23°
2026-05-04 10:16 54.01808 3.45135 31091 ft 445 kts 24°
2026-05-04 10:16 54.07336 3.49632 31083 ft 442 kts 24°
2026-05-04 10:17 54.12873 3.54152 31075 ft 441 kts 24°
2026-05-04 10:19 54.34806 3.72145 31082 ft 432 kts 24°
2026-05-04 10:19 54.40227 3.76629 31051 ft 433 kts 24°
2026-05-04 10:20 54.45666 3.81131 31058 ft 434 kts 24°
2026-05-04 10:20 54.51090 3.85637 31083 ft 432 kts 24°
2026-05-04 10:21 54.56487 3.90146 31080 ft 430 kts 24°
2026-05-04 10:21 54.61869 3.94655 31076 ft 429 kts 25°
2026-05-04 10:22 54.69914 4.01402 31071 ft 428 kts 25°
2026-05-04 10:23 54.75262 4.05894 31083 ft 426 kts 25°
2026-05-04 10:25 54.94084 4.29919 31056 ft 426 kts 45°
2026-05-04 10:25 54.98065 4.37447 31044 ft 425 kts 45°
2026-05-04 10:26 55.02101 4.45092 31030 ft 426 kts 46°
2026-05-04 10:26 55.06102 4.52722 31018 ft 426 kts 46°
2026-05-04 10:27 55.10069 4.60337 31019 ft 427 kts 46°
2026-05-04 10:27 55.14082 4.68071 31023 ft 427 kts 46°
2026-05-04 10:28 55.18077 4.75778 31036 ft 427 kts 46°
2026-05-04 10:28 55.22039 4.83432 31034 ft 427 kts 46°
2026-05-04 10:29 55.26024 4.91156 31045 ft 427 kts 46°
2026-05-04 10:29 55.29997 4.98891 31043 ft 427 kts 47°
2026-05-04 10:30 55.33497 5.07363 31042 ft 429 kts 53°
2026-05-04 10:30 55.36900 5.15959 31036 ft 429 kts 53°
2026-05-04 10:31 55.40304 5.24576 31040 ft 429 kts 53°
2026-05-04 10:32 55.52154 5.54857 31039 ft 427 kts 53°
2026-05-04 10:33 55.55525 5.63519 31022 ft 429 kts 53°
2026-05-04 10:33 55.58913 5.72243 31015 ft 431 kts 53°
2026-05-04 10:34 55.62295 5.81007 31017 ft 432 kts 53°
2026-05-04 10:34 55.65674 5.89803 31032 ft 433 kts 53°
2026-05-04 10:35 55.69057 5.98631 31029 ft 433 kts 53°
2026-05-04 10:35 55.72428 6.07475 31023 ft 433 kts 53°
2026-05-04 10:36 55.75800 6.16319 31015 ft 433 kts 53°
2026-05-04 10:36 55.79166 6.25190 31011 ft 434 kts 53°
2026-05-04 10:37 55.82538 6.34114 31003 ft 435 kts 53°
2026-05-04 10:37 55.85908 6.43084 31002 ft 436 kts 53°
2026-05-04 10:39 55.97682 6.74661 31004 ft 437 kts 54°
2026-05-04 10:40 56.01037 6.83726 30997 ft 438 kts 54°
2026-05-04 10:40 56.04397 6.92824 30991 ft 439 kts 54°
2026-05-04 10:41 56.07758 7.01975 30994 ft 440 kts 54°
2026-05-04 10:41 56.11111 7.11164 30995 ft 441 kts 54°
2026-05-04 10:42 56.14458 7.20340 31026 ft 438 kts 53°